Time,TemperatureF,DewpointF,PressureIn,WindDirection,WindDirectionDegrees,WindSpeedMPH,WindSpeedGustMPH,Humidity,HourlyPrecipIn,Conditions,Clouds,dailyrainin,SolarRadiationWatts/m^2,SoftwareType,DateUTC
2013-02-23 00:21:00,33.0,33.0,-100.00,ESE,107,0.0,4.0,100,0.00,,,-99.99,0.000000,,2013-02-23 08:21:00,
2013-02-23 00:31:00,33.0,33.0,-100.00,ESE,107,0.0,4.0,100,0.00,,,-99.99,0.000000,,2013-02-23 08:31:00,
2013-02-23 00:41:00,33.0,33.0,-100.00,ESE,107,0.0,4.0,100,0.00,,,-99.99,0.000000,,2013-02-23 08:41:00,
2013-02-23 00:52:00,33.0,33.0,-100.00,ESE,107,0.0,4.0,100,0.00,,,-99.99,0.000000,,2013-02-23 08:52:00,
2013-02-23 01:11:00,32.0,32.0,-100.00,ESE,107,0.0,5.0,100,0.00,,,0.20,0.000000,,2013-02-23 09:11:00,
2013-02-23 01:21:00,32.0,32.0,-100.00,ESE,107,0.0,5.0,100,0.00,,,0.20,0.000000,,2013-02-23 09:21:00,
2013-02-23 01:31:00,32.0,32.0,-100.00,ESE,107,0.0,5.0,100,0.00,,,0.20,0.000000,,2013-02-23 09:31:00,
2013-02-23 01:41:00,32.0,32.0,-100.00,ESE,107,0.0,5.0,100,0.00,,,0.20,0.000000,,2013-02-23 09:41:00,
2013-02-23 01:51:00,32.0,32.0,-100.00,ESE,107,0.0,5.0,100,0.00,,,0.20,0.000000,,2013-02-23 09:51:00,
2013-02-23 02:21:00,32.0,32.0,-100.00,ESE,112,0.0,5.0,100,0.00,,,0.19,0.000000,,2013-02-23 10:21:00,
2013-02-23 02:31:00,32.0,32.0,-100.00,ESE,112,0.0,5.0,100,0.00,,,0.19,0.000000,,2013-02-23 10:31:00,
2013-02-23 02:41:00,32.0,32.0,-100.00,ESE,112,0.0,5.0,100,0.00,,,0.19,0.000000,,2013-02-23 10:41:00,
2013-02-23 02:51:00,32.0,32.0,-100.00,ESE,112,0.0,5.0,100,0.00,,,0.19,0.000000,,2013-02-23 10:51:00,
2013-02-23 03:32:00,33.0,33.0,-100.00,ESE,107,0.0,4.0,100,0.00,,,0.19,0.000000,,2013-02-23 11:32:00,
2013-02-23 03:41:00,33.0,33.0,-100.00,ESE,107,0.0,4.0,100,0.00,,,0.19,0.000000,,2013-02-23 11:41:00,
2013-02-23 03:52:00,33.0,33.0,-100.00,ESE,107,0.0,4.0,100,0.00,,,0.19,0.000000,,2013-02-23 11:52:00,
2013-02-23 04:32:00,32.0,32.0,-100.00,ESE,118,0.0,4.0,99,0.00,,,0.19,0.000000,,2013-02-23 12:32:00,
2013-02-23 04:42:00,32.0,32.0,-100.00,ESE,118,0.0,4.0,99,0.00,,,0.19,0.000000,,2013-02-23 12:42:00,
2013-02-23 04:52:00,32.0,32.0,-100.00,ESE,118,0.0,4.0,99,0.00,,,0.19,0.000000,,2013-02-23 12:52:00,
2013-02-23 05:22:00,32.0,32.0,-100.00,ESE,105,1.0,5.0,99,0.00,,,0.19,0.000000,,2013-02-23 13:22:00,
2013-02-23 05:32:00,32.0,32.0,-100.00,ESE,105,1.0,5.0,99,0.00,,,0.19,0.000000,,2013-02-23 13:32:00,
2013-02-23 05:42:00,32.0,32.0,-100.00,ESE,105,1.0,5.0,99,0.00,,,0.19,0.000000,,2013-02-23 13:42:00,
2013-02-23 05:51:00,32.0,32.0,-100.00,ESE,105,1.0,5.0,99,0.00,,,0.19,0.000000,,2013-02-23 13:51:00,
2013-02-23 06:21:00,31.0,31.0,-100.00,SE,134,1.0,6.0,99,0.00,,,0.19,0.000000,,2013-02-23 14:21:00,
2013-02-23 06:32:00,31.0,31.0,-100.00,SE,134,1.0,6.0,99,0.00,,,0.19,0.000000,,2013-02-23 14:32:00,
2013-02-23 06:41:00,31.0,31.0,-100.00,SE,134,1.0,6.0,99,0.00,,,0.19,0.000000,,2013-02-23 14:41:00,
2013-02-23 06:52:00,31.0,31.0,-100.00,SE,134,1.0,6.0,99,0.00,,,0.19,0.000000,,2013-02-23 14:52:00,
2013-02-23 07:21:00,31.0,31.0,-100.00,ESE,104,0.0,5.0,100,0.00,,,0.19,2.000000,,2013-02-23 15:21:00,
2013-02-23 07:31:00,31.0,31.0,-100.00,ESE,104,0.0,5.0,100,0.00,,,0.19,2.000000,,2013-02-23 15:31:00,
2013-02-23 07:41:00,31.0,31.0,-100.00,ESE,104,0.0,5.0,100,0.00,,,0.19,2.000000,,2013-02-23 15:41:00,
2013-02-23 07:51:00,31.0,31.0,-100.00,ESE,104,0.0,5.0,100,0.00,,,0.19,2.000000,,2013-02-23 15:51:00,
2013-02-23 08:21:00,36.0,36.0,-100.00,SE,134,1.0,6.0,99,0.00,,,0.19,115.000000,,2013-02-23 16:21:00,
2013-02-23 08:31:00,36.0,36.0,-100.00,SE,134,1.0,6.0,99,0.00,,,0.19,115.000000,,2013-02-23 16:31:00,
2013-02-23 08:42:00,36.0,36.0,-100.00,SE,134,1.0,6.0,99,0.00,,,0.19,115.000000,,2013-02-23 16:42:00,
2013-02-23 08:51:00,36.0,36.0,-100.00,SE,134,1.0,6.0,99,0.00,,,0.19,115.000000,,2013-02-23 16:51:00,
2013-02-23 09:41:00,46.0,36.0,-100.00,SW,234,0.0,5.0,69,0.00,,,0.19,377.000000,,2013-02-23 17:41:00,
2013-02-23 09:52:00,46.0,36.0,-100.00,SW,234,0.0,5.0,69,0.00,,,0.19,377.000000,,2013-02-23 17:52:00,
2013-02-23 10:21:00,44.0,37.0,-100.00,WNW,284,2.0,4.0,77,0.00,,,-99.99,336.000000,,2013-02-23 18:21:00,
2013-02-23 10:31:00,44.0,37.0,-100.00,WNW,284,2.0,4.0,77,0.00,,,-99.99,336.000000,,2013-02-23 18:31:00,
2013-02-23 10:41:00,44.0,37.0,-100.00,WNW,284,2.0,4.0,77,0.00,,,-99.99,336.000000,,2013-02-23 18:41:00,
2013-02-23 10:51:00,44.0,37.0,-100.00,WNW,284,2.0,4.0,77,0.00,,,-99.99,336.000000,,2013-02-23 18:51:00,
2013-02-23 11:21:00,44.0,39.0,-100.00,West,277,3.0,7.0,83,0.00,,,0.14,256.000000,,2013-02-23 19:21:00,
2013-02-23 11:32:00,44.0,39.0,-100.00,West,277,3.0,7.0,83,0.00,,,0.14,256.000000,,2013-02-23 19:32:00,
2013-02-23 11:41:00,44.0,39.0,-100.00,West,277,3.0,7.0,83,0.00,,,0.14,256.000000,,2013-02-23 19:41:00,
2013-02-23 11:51:00,44.0,39.0,-100.00,West,277,3.0,7.0,83,0.00,,,0.14,256.000000,,2013-02-23 19:51:00,
2013-02-23 12:21:00,44.0,40.0,-100.00,WSW,253,4.0,7.0,85,0.00,,,0.10,341.000000,,2013-02-23 20:21:00,
2013-02-23 12:32:00,44.0,40.0,-100.00,WSW,253,4.0,7.0,85,0.00,,,0.10,341.000000,,2013-02-23 20:32:00,
2013-02-23 12:41:00,44.0,40.0,-100.00,WSW,253,4.0,7.0,85,0.00,,,0.10,341.000000,,2013-02-23 20:41:00,
2013-02-23 12:52:00,44.0,40.0,-100.00,WSW,253,4.0,7.0,85,0.00,,,0.10,341.000000,,2013-02-23 20:52:00,
2013-02-23 13:22:00,47.0,37.0,-100.00,West,266,4.0,8.0,69,0.00,,,0.07,710.000000,,2013-02-23 21:22:00,
2013-02-23 13:31:00,47.0,37.0,-100.00,West,266,4.0,8.0,69,0.00,,,0.07,710.000000,,2013-02-23 21:31:00,
2013-02-23 13:41:00,47.0,37.0,-100.00,West,266,4.0,8.0,69,0.00,,,0.07,710.000000,,2013-02-23 21:41:00,
2013-02-23 13:51:00,47.0,37.0,-100.00,West,266,4.0,8.0,69,0.00,,,0.07,710.000000,,2013-02-23 21:51:00,
2013-02-23 14:21:00,44.0,39.0,-100.00,WNW,283,5.0,9.0,83,0.00,,,0.03,409.000000,,2013-02-23 22:21:00,
2013-02-23 14:31:00,44.0,39.0,-100.00,WNW,283,5.0,9.0,83,0.00,,,0.03,409.000000,,2013-02-23 22:31:00,
2013-02-23 14:41:00,44.0,39.0,-100.00,WNW,283,5.0,9.0,83,0.00,,,0.03,409.000000,,2013-02-23 22:41:00,
2013-02-23 14:51:00,44.0,39.0,-100.00,WNW,283,5.0,9.0,83,0.00,,,0.03,409.000000,,2013-02-23 22:51:00,
2013-02-23 15:41:00,48.0,42.0,-100.00,WNW,296,5.0,12.0,79,0.00,,,0.01,486.000000,,2013-02-23 23:41:00,
2013-02-23 15:52:00,48.0,42.0,-100.00,WNW,296,5.0,12.0,79,0.00,,,0.01,486.000000,,2013-02-23 23:52:00,
2013-02-23 16:22:00,46.0,41.0,-100.00,WNW,286,5.0,14.0,82,0.00,,,0.00,270.000000,,2013-02-24 00:22:00,
2013-02-23 16:32:00,46.0,41.0,-100.00,WNW,286,5.0,14.0,82,0.00,,,0.00,270.000000,,2013-02-24 00:32:00,
2013-02-23 16:42:00,46.0,41.0,-100.00,WNW,286,5.0,14.0,82,0.00,,,0.00,270.000000,,2013-02-24 00:42:00,
2013-02-23 16:52:00,46.0,41.0,-100.00,WNW,286,5.0,14.0,82,0.00,,,0.00,270.000000,,2013-02-24 00:52:00,
2013-02-23 17:22:00,41.0,40.0,-100.00,NW,308,0.0,14.0,97,0.00,,,0.00,118.000000,,2013-02-24 01:22:00,
2013-02-23 17:31:00,41.0,40.0,-100.00,NW,308,0.0,14.0,97,0.00,,,0.00,118.000000,,2013-02-24 01:31:00,
2013-02-23 17:41:00,41.0,40.0,-100.00,NW,308,0.0,14.0,97,0.00,,,0.00,118.000000,,2013-02-24 01:41:00,
2013-02-23 17:51:00,41.0,40.0,-100.00,NW,308,0.0,14.0,97,0.00,,,0.00,118.000000,,2013-02-24 01:51:00,
2013-02-23 18:21:00,39.0,38.0,-100.00,WNW,288,2.0,12.0,96,0.00,,,0.00,19.000000,,2013-02-24 02:21:00,
2013-02-23 18:32:00,39.0,38.0,-100.00,WNW,288,2.0,12.0,96,0.00,,,0.00,19.000000,,2013-02-24 02:32:00,
2013-02-23 18:41:00,39.0,38.0,-100.00,WNW,288,2.0,12.0,96,0.00,,,0.00,19.000000,,2013-02-24 02:41:00,
2013-02-23 18:52:00,39.0,38.0,-100.00,WNW,288,2.0,12.0,96,0.00,,,0.00,19.000000,,2013-02-24 02:52:00,
2013-02-23 19:42:00,40.0,40.0,-100.00,West,273,3.0,10.0,99,0.00,,,0.00,0.000000,,2013-02-24 03:42:00,
2013-02-23 19:52:00,40.0,40.0,-100.00,West,273,3.0,10.0,99,0.00,,,0.00,0.000000,,2013-02-24 03:52:00,
2013-02-23 20:21:00,39.0,39.0,-100.00,WNW,286,3.0,8.0,100,0.00,,,0.00,0.000000,,2013-02-24 04:21:00,
2013-02-23 20:41:00,39.0,39.0,-100.00,WNW,286,3.0,8.0,100,0.00,,,0.00,0.000000,,2013-02-24 04:41:00,
2013-02-23 20:51:00,39.0,39.0,-100.00,WNW,286,3.0,8.0,100,0.00,,,0.00,0.000000,,2013-02-24 04:51:00,
2013-02-23 21:22:00,37.0,37.0,-100.00,WSW,254,0.0,8.0,99,0.00,,,0.00,0.000000,,2013-02-24 05:22:00,
2013-02-23 21:32:00,37.0,37.0,-100.00,WSW,254,0.0,8.0,99,0.00,,,0.00,0.000000,,2013-02-24 05:32:00,
2013-02-23 21:42:00,37.0,37.0,-100.00,WSW,254,0.0,8.0,99,0.00,,,0.00,0.000000,,2013-02-24 05:42:00,
2013-02-23 21:52:00,37.0,37.0,-100.00,WSW,254,0.0,8.0,99,0.00,,,0.00,0.000000,,2013-02-24 05:52:00,
2013-02-23 22:21:00,38.0,38.0,-100.00,WSW,245,0.0,6.0,100,0.00,,,0.00,0.000000,,2013-02-24 06:21:00,
2013-02-23 22:31:00,38.0,38.0,-100.00,WSW,245,0.0,6.0,100,0.00,,,0.00,0.000000,,2013-02-24 06:31:00,
2013-02-23 22:41:00,38.0,38.0,-100.00,WSW,245,0.0,6.0,100,0.00,,,0.00,0.000000,,2013-02-24 06:41:00,
2013-02-23 22:52:00,38.0,38.0,-100.00,WSW,245,0.0,6.0,100,0.00,,,0.00,0.000000,,2013-02-24 06:52:00,
2013-02-23 23:21:00,37.0,37.0,-100.00,NW,317,0.0,4.0,99,0.00,,,0.00,0.000000,,2013-02-24 07:21:00,
2013-02-23 23:31:00,37.0,37.0,-100.00,NW,317,0.0,4.0,99,0.00,,,0.00,0.000000,,2013-02-24 07:31:00,
2013-02-23 23:41:00,37.0,37.0,-100.00,NW,317,0.0,4.0,99,0.00,,,0.00,0.000000,,2013-02-24 07:41:00,
2013-02-23 23:51:00,37.0,37.0,-100.00,NW,317,0.0,4.0,99,0.00,,,0.00,0.000000,,2013-02-24 07:51:00,